This demonstration page uses our WeatherBlox Daily Observations layout. Learn more.

41.55636, -103.73856

Hourly Observations for October 29, 2019

Temp ( °F °C ) Dew Point ( °F °C ) Humidity (%) Winds ( mph kmh ) Pressure ( in mb ) Visibility ( mi km ) Precip ( " mm )
12:58 am 00:58 Mostly Cloudy 18 -7.6 11 -11.6 73 73 SSW 5 7 30.17 1022 10 16.0934 0 0
1:58 am 01:58 Mostly Cloudy 19 -7.2 11 -11.7 71 71 Calm 30.18 1022 10 16.0934 0 0
2:58 am 02:58 Cloudy 20 -6.7 10 -12.1 66 66 Calm 30.18 1022 10 16.0934 0 0
3:58 am 03:58 Mostly Cloudy 16 -8.7 11 -11.7 79 79 SW 6 9 30.19 1022 10 16.0934 0 0
4:58 am 04:58 Mostly Cloudy 19 -7.5 14 -10.2 81 81 WSW 5 7 30.19 1022 10 16.0934 0 0
5:58 am 05:58 Partly Cloudy 19 -7.4 14 -9.9 83 83 Calm 30.2 1023 10 16.0934 0 0
6:58 am 06:58 Mostly Cloudy 20 -6.9 14 -9.8 80 80 Calm 30.19 1022 10 16.0934 0 0
7:58 am 07:58 Mostly Cloudy 14 -9.8 12 -11.2 90 90 NNW 5 7 30.22 1023 10 16.0934 0 0
8:58 am 08:58 Mostly Cloudy 17 -8.6 13 -10.6 86 86 NE 15 24 30.24 1024 10 16.0934 0 0
9:58 am 09:58 Cloudy with Light Snow 17 -8.5 14 -10 89 89 NE 14 22 30.26 1025 10 16.0934 0 0
10:58 am 10:58 Cloudy with Light Snow 15 -9.3 12 -11.3 86 86 NE 18 30 30.29 1026 7 11.26538 0 0
11:58 am 11:58 Cloudy with Light Snow 11 -11.5 8 -13.4 86 86 NNE 15 24 30.34 1027 10 16.0934 0 0
12:58 pm 12:58 Cloudy with Light Snow 10 -12.1 7 -14.1 85 85 NE 16 26 30.38 1029 10 16.0934 0 0
1:58 pm 13:58 Cloudy with Light Snow 10 -12.1 7 -13.9 87 87 NE 13 20 30.41 1030 1 1.60934 0 0
2:58 pm 14:58 Cloudy with Light Snow 10 -12.3 7 -14.1 87 87 NE 17 28 30.43 1031 1.5 2.41401 0 0
3:59 pm 15:59 Cloudy with Light Snow 11 -11.8 7 -14 84 84 NE 16 26 30.45 1031 0.75 1.207005 0 0
4:58 pm 16:58 Windy with Snow Likely 12 -11.2 7 -13.8 81 81 NNE 20 31 30.44 1031 1 1.60934 0 0
5:58 pm 17:58 Mostly Cloudy with Scattered Snow Showers 12 -11.1 7 -13.7 81 81 NNE 14 22 30.45 1031 7 11.26538 0 0
6:58 pm 18:58 Cloudy with Light Snow 13 -10.7 7 -14.1 76 76 N 10 17 30.45 1031 3 4.82802 0 0
7:58 pm 19:58 Mostly Cloudy with Scattered Snow Showers 13 -10.3 8 -13.5 78 78 NNE 9 15 30.45 1031 7 11.26538 0 0
8:58 pm 20:58 Cloudy with Light Snow Showers 13 -10.4 6 -14.2 74 74 N 12 19 30.43 1031 7 11.26538 0 0
9:58 pm 21:58 Cloudy with Light Snow Showers 13 -10.6 6 -14.5 73 73 N 13 20 30.45 1031 2.5 4.02335 0 0
10:58 pm 22:58 Cloudy with Light Snow Showers 12 -11.3 7 -13.8 82 82 N 10 17 30.46 1032 1.25 2.011675 0 0
11:58 pm 23:58 Cloudy with Light Snow 11 -11.6 8 -13.5 86 86 N 6 9 30.49 1033 2.75 4.425685 0 0

Powered by AerisWeather